TimeEST,TemperatureF,Dew PointF,Humidity,Sea Level PressureIn,VisibilityMPH,Wind Direction,Wind SpeedMPH,Gust SpeedMPH,PrecipitationIn,Events,Conditions,WindDirDegrees,DateUTC
12:53 AM,63.0,60.1,90,30.14,10.0,Calm,Calm,-,N/A,,Clear,0,2012-02-15 05:53:00
1:53 AM,61.0,59.0,93,30.13,10.0,Calm,Calm,-,N/A,,Clear,0,2012-02-15 06:53:00
2:53 AM,62.1,59.0,90,30.11,10.0,ESE,3.5,-,N/A,,Clear,110,2012-02-15 07:53:00
3:53 AM,61.0,59.0,93,30.11,10.0,East,3.5,-,N/A,,Clear,90,2012-02-15 08:53:00
4:53 AM,60.1,57.9,93,30.12,10.0,Calm,Calm,-,N/A,,Clear,0,2012-02-15 09:53:00
5:53 AM,59.0,57.9,96,30.14,10.0,Calm,Calm,-,N/A,,Clear,0,2012-02-15 10:53:00
6:53 AM,59.0,57.0,93,30.16,10.0,Calm,Calm,-,N/A,,Clear,0,2012-02-15 11:53:00
7:53 AM,61.0,59.0,93,30.17,8.0,East,4.6,-,N/A,,Clear,80,2012-02-15 12:53:00
8:53 AM,69.1,61.0,75,30.18,10.0,ESE,4.6,-,N/A,,Clear,110,2012-02-15 13:53:00
9:53 AM,73.9,61.0,64,30.20,10.0,East,6.9,-,N/A,,Clear,100,2012-02-15 14:53:00
10:53 AM,77.0,60.1,56,30.21,10.0,SE,9.2,-,N/A,,Partly Cloudy,140,2012-02-15 15:53:00
11:53 AM,79.0,59.0,50,30.19,10.0,SSE,5.8,-,N/A,,Mostly Cloudy,150,2012-02-15 16:53:00
12:53 PM,80.1,59.0,48,30.16,10.0,Variable,6.9,-,N/A,,Scattered Clouds,0,2012-02-15 17:53:00
1:29 PM,78.8,60.8,54,30.15,10.0,SW,13.8,-,N/A,,Clear,220,2012-02-15 18:29:00
1:53 PM,79.0,61.0,54,30.13,10.0,SW,10.4,-,N/A,,Clear,220,2012-02-15 18:53:00
2:53 PM,77.0,60.1,56,30.11,10.0,SW,13.8,-,N/A,,Scattered Clouds,230,2012-02-15 19:53:00
3:53 PM,78.1,61.0,56,30.11,10.0,SW,9.2,-,N/A,,Clear,230,2012-02-15 20:53:00
4:53 PM,75.9,61.0,60,30.12,10.0,SW,5.8,-,N/A,,Partly Cloudy,220,2012-02-15 21:53:00
5:53 PM,73.9,62.1,66,30.14,10.0,SW,6.9,-,N/A,,Partly Cloudy,230,2012-02-15 22:53:00
6:53 PM,71.1,63.0,75,30.15,10.0,SSW,5.8,-,N/A,,Clear,210,2012-02-15 23:53:00
7:53 PM,69.1,63.0,81,30.16,10.0,Calm,Calm,-,N/A,,Clear,0,2012-02-16 00:53:00
8:53 PM,69.1,62.1,78,30.17,10.0,Calm,Calm,-,N/A,,Clear,0,2012-02-16 01:53:00
9:53 PM,66.9,62.1,84,30.17,9.0,East,3.5,-,N/A,,Unknown,80,2012-02-16 02:53:00
10:53 PM,66.0,62.1,87,30.18,10.0,East,4.6,-,N/A,,Clear,90,2012-02-16 03:53:00
11:53 PM,64.9,61.0,87,30.18,10.0,ENE,3.5,-,N/A,,Clear,60,2012-02-16 04:53:00